Weather in Loboykovo

Russia / Volgograd Oblast     50°27′33″N   44°12′40″E
temp.,
°C
wind,
m/s
gust,
m/s
humid.,
%
clouds,
%
prec.,
mm/h
press.,
hPa
HPBL,
m
27 february, sat
sat2700:00+3wsw71599100 0.4 1008365
03:00+2wnw61395100 0.4 1008424
06:000w51097100 0.0 1006263
09:00+1w71394100 0.0 1007631
12:00+2w71294100 0.0 1006621
15:00+2w71291100 0.0 1005703
18:00+1w71495100 0.1 1005666
21:00−3nw91583100 0.3 1008725
28 february, sun
sun2800:00−7nnw6118484 0.0 1010582
03:00−8nw6108686 0.1 1012553
06:00−9nw598683 0.0 1013517
09:00−9nnw588377 0.0 1014498
12:00−7nw477989 0.0 1015545
15:00−6nw578093 0.0 1015605
18:00−6nw4686100 0.0 1016541
21:00−6nnw3587100 0.1 1018504
1 march, mon
mon100:00−8nne2391100 0.0 1019175
03:00−9n239077 0.0 1021110
06:00−10nne23890 0.0 1022143
09:00−9n23804 0.0 1025265
12:00−7nnw33690 0.0 1025454
15:00−6nw34690 0.0 1026514
18:00−8nw24840 0.0 1026144
21:00−8w22890 0.0 102764
2 march, tue
tue200:00−8wsw34920 0.0 102692
03:00−8wsw499217 0.0 1024204
06:00−6sw61291100 0.0 1021288
09:00−4wsw81588100 0.0 1018569
12:00−2wsw101590100 0.2 1014761
15:00−1wsw101596100 2.3 1011855
18:000wnw71398100 1.7 1009641
21:00−1wnw71391100 1.8 1010660
3 march, wed
wed300:00−2nw7139294 0.0 1010577
03:00−4wnw6139491 0.1 1011362
06:00−4wnw6119493 0.1 1011444
09:00−3nw6119196 0.3 1012731
12:00−2nw81086100 0.2 1012954
15:00−2nw81181100 0.3 10131178
18:00−4nw5128988 0.1 1015508
21:00−5nw6139278 0.1 1017617